Date,TemperatureHighF,TemperatureAvgF,TemperatureLowF,DewpointHighF,DewpointAvgF,DewpointLowF,HumidityHigh,HumidityAvg,HumidityLow,PressureMaxIn,PressureMinIn,WindSpeedMaxMPH,WindSpeedAvgMPH,GustSpeedMaxMPH,PrecipitationSumIn
2013-2-9,52,39,33,28,26,22,74,60,34,29.62,29.54,2,0,2,0.00
2013-2-10,58,49,31,48,33,22,94,58,29,29.73,29.48,9,2,14,0.30
2013-2-11,63,58,49,59,55,48,96,91,84,29.48,29.23,13,5,21,0.10
2013-2-12,63,53,44,51,41,29,96,68,31,29.40,29.21,6,1,12,0.07
2013-2-13,49,46,40,47,44,37,97,93,82,29.25,28.95,11,2,17,0.09
2013-2-14,43,34,30,38,33,29,96,94,78,29.35,29.17,4,0,8,0.00
2013-2-15,64,47,31,42,34,29,96,67,30,29.38,29.22,10,2,15,0.00
2013-2-16,47,36,28,38,32,24,94,86,70,29.27,29.12,9,1,14,0.16
2013-2-17,43,31,23,24,18,11,87,60,29,29.54,29.27,15,3,22,0.00
2013-2-18,56,38,20,29,23,16,87,60,33,29.66,29.50,9,2,14,0.00
2013-2-19,48,41,32,45,36,25,96,84,61,29.51,29.18,12,2,22,0.21
2013-2-20,55,41,27,32,23,16,87,52,24,29.40,29.30,10,2,13,0.00
2013-2-21,58,42,27,36,24,15,78,50,27,29.53,29.38,6,1,9,0.00
2013-2-22,45,38,36,37,36,30,96,91,59,29.59,29.39,6,1,8,0.31
2013-2-23,43,40,36,42,39,35,97,96,95,29.41,29.13,4,1,7,0.56
2013-2-24,67,50,40,47,39,28,97,71,26,29.32,29.12,11,2,15,0.00
2013-2-25,42,40,38,31,28,26,74,64,56,29.48,29.31,6,2,10,0.00
2013-2-26,48,40,34,48,38,27,97,91,62,29.36,28.86,6,2,12,0.80
2013-2-27,58,47,34,42,38,33,97,75,50,29.11,28.95,12,3,20,0.00
2013-2-28,53,42,33,36,30,27,92,65,41,29.18,29.02,11,2,20,0.00
2013-3-1,50,39,28,34,30,25,88,69,48,29.22,29.15,11,2,16,0.00
2013-3-2,47,38,30,37,33,25,94,80,66,29.23,29.12,9,1,15,0.09
2013-3-3,49,35,24,26,22,18,89,62,36,29.29,29.17,12,2,18,0.00
2013-3-4,55,38,23,30,21,16,82,54,23,29.42,29.29,11,2,15,0.00
2013-3-5,56,46,36,48,39,26,96,75,55,29.35,28.89,10,2,14,0.41
2013-3-6,52,42,35,46,29,23,96,60,39,29.40,28.89,17,6,30,0.01
2013-3-7,57,41,29,33,28,25,87,62,37,29.54,29.40,10,2,15,0.00
2013-3-8,58,43,29,30,26,23,79,54,29,29.61,29.48,11,2,16,0.00
2013-3-9,65,47,32,36,31,26,79,56,33,29.63,29.51,6,1,10,0.00
2013-3-10,68,51,35,41,36,32,89,61,33,29.59,29.46,8,1,12,0.00
2013-3-11,70,54,39,55,44,27,90,68,50,29.50,29.16,12,2,21,0.06
2013-3-12,71,61,48,60,51,32,96,73,34,29.27,29.06,12,3,22,0.89
2013-3-13,61,47,36,37,28,18,87,53,27,29.43,29.26,14,3,22,0.00
2013-3-14,55,41,29,27,20,17,66,45,24,29.56,29.43,11,2,18,0.00
2013-3-15,66,47,28,42,30,21,83,55,33,29.49,29.20,11,2,21,0.00
2013-3-16,80,67,58,49,44,40,58,45,31,29.85,29.02,17,6,29,0.00
2013-3-17,78,61,48,55,45,40,77,58,38,30.09,29.85,7,2,15,0.00
2013-3-18,48,43,40,42,40,38,96,91,76,30.13,29.85,10,2,17,0.64
2013-3-19,69,53,41,48,35,18,97,60,18,30.03,29.83,11,3,18,0.01
2013-3-20,57,48,42,28,18,10,55,31,20,30.10,29.77,9,2,13,0.00
2013-3-21,49,40,31,29,16,8,66,38,21,29.96,29.76,16,4,24,0.00
2013-3-22,53,39,24,27,18,12,74,46,25,30.07,29.95,10,2,15,0.00
2013-3-23,52,43,38,44,37,26,94,79,45,30.05,29.89,6,0,8,0.04
2013-3-24,42,40,38,41,39,37,96,95,92,29.92,29.55,8,1,13,0.84
2013-3-25,50,42,38,40,30,20,97,68,36,29.87,29.55,18,5,28,0.04
2013-3-26,49,40,31,29,26,23,77,57,42,30.15,29.87,12,4,20,0.00
2013-3-27,56,42,30,29,25,20,80,53,29,30.24,30.15,12,2,18,0.00
2013-3-28,59,43,31,27,24,20,73,48,25,30.28,30.17,13,2,18,0.00
2013-3-29,64,48,29,37,28,24,83,50,24,30.33,30.16,9,2,16,0.00
2013-3-30,66,55,46,50,45,37,96,71,43,30.21,30.06,6,1,9,0.22
2013-3-31,71,59,50,58,52,46,96,78,55,30.06,29.80,14,3,22,0.37
2013-4-1,76,63,53,56,47,36,97,62,26,29.95,29.83,12,2,17,0.05
2013-4-2,66,53,39,41,35,28,85,54,28,30.15,29.95,10,2,15,0.00
2013-4-3,64,54,44,35,26,19,58,35,24,30.26,30.10,7,2,12,0.00
2013-4-4,49,42,38,38,34,24,95,76,43,30.26,29.94,6,2,16,0.77
2013-4-5,66,49,37,51,42,36,96,79,46,30.03,29.90,7,2,10,0.01
2013-4-6,70,54,38,43,38,35,90,59,30,30.22,30.03,6,1,12,0.00
2013-4-7,73,57,39,51,43,35,87,62,35,30.26,30.09,10,2,16,0.00
2013-4-8,79,66,53,57,53,50,93,65,41,30.17,30.06,11,3,18,0.00
2013-4-9,85,70,55,61,57,52,91,64,40,30.19,30.08,10,2,17,0.00
2013-4-10,87,73,61,63,59,56,90,64,39,30.12,29.96,10,3,16,0.00
2013-4-11,82,71,62,67,62,56,92,74,52,29.99,29.77,10,3,18,0.00
2013-4-12,83,72,61,68,58,40,96,68,28,29.83,29.65,15,4,26,0.28
2013-4-13,79,62,46,49,43,39,88,55,26,30.02,29.83,9,1,12,0.00
2013-4-14,78,62,44,55,46,41,91,60,31,30.09,29.99,6,1,10,0.00
2013-4-15,73,65,59,61,58,53,92,79,65,30.19,29.98,5,0,8,0.00
2013-4-16,79,67,57,64,60,56,95,80,54,30.29,30.18,6,0,7,0.00
2013-4-17,89,71,57,66,61,55,96,73,39,30.25,30.09,8,1,14,0.00
2013-4-18,83,71,62,65,62,59,92,73,48,30.17,30.00,6,1,15,0.00
2013-4-19,81,69,56,69,64,52,94,84,62,30.01,29.76,14,4,27,0.39
2013-4-20,66,54,42,52,40,32,90,62,30,30.25,29.89,8,1,13,0.00
2013-4-21,67,52,39,48,42,37,93,69,42,30.43,30.25,5,1,10,0.00
2013-4-22,67,53,40,43,37,30,84,58,27,30.41,30.21,6,1,12,0.00
2013-4-23,70,57,51,55,49,42,92,74,56,30.26,30.11,5,0,8,0.00
2013-4-24,77,63,50,60,54,48,95,76,49,30.15,30.00,12,2,20,0.00
2013-4-25,74,62,48,59,46,34,87,60,25,30.26,30.04,8,1,13,0.00
2013-4-26,74,59,43,49,41,35,84,54,26,30.42,30.26,6,1,9,0.01
2013-4-27,66,58,54,58,52,47,95,79,57,30.36,30.26,6,0,9,0.09
2013-4-28,65,61,58,64,59,56,96,94,90,30.33,30.17,9,3,15,1.44
2013-4-29,68,61,58,64,60,57,97,96,83,30.18,30.13,7,1,10,0.16
2013-5-1,68,63,59,60,58,57,94,83,74,30.38,30.32,8,3,15,0.00
2013-5-2,66,61,58,60,58,57,96,92,83,30.40,30.32,9,3,14,0.04
2013-5-3,70,60,54,58,54,45,94,82,58,30.33,30.22,18,4,25,0.00
2013-5-4,66,56,50,54,49,43,86,76,63,30.25,30.10,13,5,22,0.00
2013-5-9,85,74,58,63,58,53,93,62,36,30.21,30.15,8,1,12,0.00
2013-5-10,84,70,53,66,59,51,96,73,42,30.21,30.09,12,2,18,0.00
2013-5-11,80,72,63,66,62,58,90,73,55,30.12,29.97,11,4,17,0.00
2013-5-12,79,68,52,64,54,41,95,65,27,30.16,29.97,14,2,20,0.00
2013-5-13,72,56,42,46,41,33,94,62,25,30.30,30.16,14,2,20,0.00
2013-5-14,74,57,37,50,41,34,95,62,27,30.39,30.23,10,2,14,0.00
2013-5-15,72,56,52,58,48,45,80,74,61,30.23,30.19,8,2,14,0.00
2013-5-18,80,74,67,68,66,64,93,77,60,30.27,30.21,7,1,10,0.00
2013-5-19,73,69,67,71,67,65,96,93,89,30.26,30.18,9,2,12,1.56
2013-5-22,85,80,73,69,67,63,81,64,53,30.17,30.03,9,4,13,0.01
2013-5-23,82,75,66,72,69,65,96,82,63,30.08,29.96,7,1,10,0.99
2013-5-24,76,67,50,66,54,42,97,70,33,30.33,29.99,18,4,26,0.00
2013-5-25,79,60,40,57,45,38,96,65,26,30.45,30.28,8,1,12,0.00
2013-5-26,78,63,52,60,50,43,95,67,34,30.41,30.29,10,1,12,0.00
2013-5-27,86,68,49,68,56,48,96,69,36,30.40,30.27,8,2,12,0.00
2013-5-28,84,73,60,67,63,58,95,73,52,30.38,30.28,8,2,12,0.00
2013-5-29,86,73,57,67,62,55,96,72,46,30.39,30.29,8,2,12,0.00
2013-5-30,87,73,58,68,63,56,96,72,42,30.42,30.29,8,2,10,0.00
2013-5-31,89,76,64,71,67,61,96,75,48,30.37,30.23,10,2,14,0.00
2013-6-1,87,76,64,68,66,62,97,73,47,30.28,30.16,11,3,15,0.00
2013-6-2,88,76,68,70,68,65,95,76,49,30.22,30.03,12,4,18,0.26
2013-6-3,87,76,69,74,70,67,97,85,57,30.09,29.98,9,2,12,0.01
2013-6-4,87,75,65,72,68,64,97,79,52,30.20,30.06,9,2,12,0.00
2013-6-5,82,73,69,72,69,66,96,89,69,30.22,30.12,17,3,27,0.15
2013-6-6,76,72,69,74,70,68,97,95,89,30.12,29.94,11,3,15,0.92
2013-6-7,81,72,66,73,69,65,97,93,76,29.98,29.71,16,3,30,0.60
2013-6-8,84,73,66,73,68,65,98,86,60,30.22,29.98,9,2,16,0.00
2013-6-9,86,73,65,74,69,64,98,88,59,30.28,30.20,8,1,14,0.07
2013-6-10,83,74,70,75,71,68,96,92,73,30.24,30.07,15,4,22,0.33
2013-6-11,89,77,67,73,69,64,96,80,46,30.13,30.07,11,2,17,0.00
2013-6-12,94,79,64,79,71,62,97,78,49,30.15,30.03,9,1,13,0.00
2013-6-13,93,81,70,76,71,67,96,75,48,30.03,29.81,15,4,25,0.00
2013-6-14,85,74,61,68,63,57,96,71,40,30.16,29.90,13,2,21,0.00
2013-6-15,88,72,56,70,61,54,97,73,39,30.27,30.16,7,1,12,0.00
2013-6-16,86,74,60,72,66,57,96,77,52,30.30,30.17,12,2,17,0.00
2013-6-17,88,76,68,74,69,63,96,80,58,30.20,30.07,14,2,21,0.81
2013-6-18,84,75,70,75,71,68,96,88,69,30.12,29.94,13,3,21,0.08
2013-6-19,84,75,68,72,69,65,96,84,56,30.23,30.03,9,1,13,0.01
2013-6-20,85,74,64,71,66,62,97,78,53,30.34,30.23,9,2,14,0.00
2013-6-21,85,72,60,66,62,58,97,74,45,30.38,30.30,9,2,14,0.00
2013-6-22,86,73,62,73,67,60,97,82,59,30.33,30.24,8,1,14,0.00
2013-6-23,84,76,66,75,71,65,96,86,67,30.34,30.26,9,1,12,0.03
2013-6-24,83,74,70,77,71,68,97,91,76,30.36,30.28,12,1,20,0.23
2013-7-2,77,73,72,73,72,70,97,95,87,30.28,30.23,12,3,16,1.24
2013-7-3,81,75,73,76,73,72,97,94,80,30.35,30.26,9,2,18,0.15
2013-7-4,87,77,73,76,73,70,97,88,65,30.38,30.30,14,3,22,0.04
2013-7-5,84,75,72,78,73,71,98,93,75,30.39,30.30,11,1,16,0.41
2013-7-6,85,76,71,78,73,71,98,92,70,30.37,30.25,10,1,20,0.20
2013-7-7,86,78,73,78,74,72,98,89,69,30.33,30.20,8,2,14,0.06
2013-7-8,88,78,73,76,74,71,97,87,65,30.32,30.25,11,1,14,0.01
2013-7-9,87,78,73,78,74,70,98,88,68,30.31,30.21,16,2,21,0.04
2013-7-10,87,77,72,77,73,70,97,88,66,30.26,30.10,11,2,16,0.00
2013-7-11,85,74,70,77,72,69,97,92,74,30.12,30.01,12,2,18,1.47
2013-7-12,81,74,68,75,71,67,98,92,77,30.13,30.00,13,1,20,0.07
2013-7-13,84,74,68,76,72,67,98,93,78,30.23,30.12,8,1,13,0.31
2013-7-14,86,77,72,76,73,70,97,88,67,30.40,30.22,13,3,18,0.15
2013-7-15,90,78,71,78,73,70,98,88,61,30.44,30.36,18,1,30,0.28
2013-7-16,93,81,68,79,74,67,98,81,54,30.43,30.34,5,0,8,0.00
2013-7-17,92,78,71,81,74,70,98,88,66,30.36,30.25,8,1,14,0.00
2013-7-18,92,79,68,80,73,67,98,84,58,30.31,30.19,7,1,9,0.00
2013-7-19,90,80,72,77,74,70,97,82,55,30.26,30.12,8,2,12,0.00
2013-7-20,87,79,73,78,73,72,96,85,64,30.20,30.07,9,3,14,0.00
2013-7-21,88,77,72,77,73,71,96,88,68,30.16,30.05,8,2,12,0.05
2013-7-22,87,77,72,76,73,71,98,87,69,30.13,30.00,10,2,18,0.00
2013-7-23,90,80,72,77,73,70,96,81,57,30.02,29.91,12,3,20,0.00
2013-7-24,92,79,69,78,73,68,98,83,54,29.99,29.88,8,1,20,0.00
2013-7-25,86,75,68,74,70,67,97,86,66,30.16,29.93,7,1,14,0.00
2013-7-26,90,76,66,73,69,65,97,79,50,30.24,30.14,7,1,10,0.00
2013-7-27,83,74,71,77,72,70,96,92,74,30.18,30.06,12,2,20,0.37
2013-7-28,89,77,68,76,72,67,98,84,58,30.15,30.06,8,2,12,0.00
2013-7-29,90,78,70,77,72,69,97,84,60,30.29,30.14,6,1,9,0.00
2013-7-30,90,77,67,75,69,64,98,80,48,30.34,30.26,8,1,12,0.00
2013-7-31,83,74,68,75,70,67,97,88,70,30.28,30.13,10,1,16,0.28
2013-8-1,86,76,71,78,73,70,97,90,70,30.14,30.01,7,1,12,0.01
2013-8-2,90,78,71,79,74,70,98,87,62,30.17,30.05,6,1,8,0.00
2013-8-3,89,79,71,77,74,70,98,86,61,30.17,30.07,6,1,12,0.00
2013-8-4,89,77,68,75,70,66,98,81,53,30.15,30.06,8,1,14,0.00
2013-8-5,86,76,66,71,66,62,97,75,46,30.21,30.12,10,2,14,0.00
2013-8-6,73,69,65,70,66,63,97,92,77,30.22,30.11,8,1,13,2.84
2013-8-7,85,76,68,76,71,66,98,86,59,30.24,30.15,7,1,9,0.00
2013-8-8,90,78,67,78,72,66,98,84,56,30.21,30.13,6,1,9,0.00
2013-8-9,89,79,72,78,75,70,98,86,66,30.23,30.15,9,2,14,0.00
2013-8-10,92,81,72,79,75,71,97,83,60,30.27,30.17,9,2,16,0.00
2013-8-11,93,81,70,79,74,69,97,82,58,30.26,30.17,10,2,14,0.00
2013-8-12,94,82,70,80,74,69,97,81,53,30.21,30.08,8,1,12,0.11
2013-8-13,91,80,71,78,74,70,98,85,61,30.12,29.94,12,3,20,0.21
2013-8-14,82,72,67,72,68,64,98,88,63,30.20,29.99,8,1,12,0.00
2013-8-15,76,68,61,66,62,59,95,82,58,30.27,30.18,10,2,15,0.00
2013-8-16,66,63,59,64,62,58,97,95,91,30.28,30.20,6,1,12,0.55
2013-8-17,68,66,63,67,64,62,97,96,91,30.29,30.23,6,1,14,0.23
2013-8-18,87,74,67,76,70,66,98,88,59,30.34,30.25,5,0,7,0.02
2013-8-19,78,73,70,73,71,70,98,94,80,30.31,30.22,7,1,12,1.26
2013-8-20,85,75,70,77,72,68,98,91,75,30.32,30.23,5,0,7,0.02
2013-8-21,88,76,71,77,73,70,98,90,68,30.36,30.24,10,1,15,0.53
2013-8-22,92,78,67,79,73,66,98,84,56,30.31,30.14,10,1,12,0.00
2013-8-23,92,78,66,79,72,65,98,83,52,30.19,30.08,8,1,9,0.00
2013-8-24,84,73,62,71,66,61,95,80,52,30.41,30.18,9,2,15,0.00
2013-8-25,82,69,59,67,62,57,98,80,50,30.51,30.40,11,1,20,0.00
2013-8-26,83,67,53,68,59,52,98,79,36,30.45,30.26,6,1,10,0.01
2013-8-27,89,73,58,76,66,57,98,82,56,30.28,30.13,7,1,10,0.00
2013-8-28,89,77,66,78,72,65,98,84,59,30.15,30.07,6,1,9,0.00
2013-8-29,95,80,70,78,73,69,97,83,52,30.11,30.02,7,1,12,0.00
2013-8-30,90,77,68,73,69,66,96,79,50,30.19,30.08,7,1,11,0.00
2013-8-31,89,76,65,76,70,63,98,85,62,30.12,30.00,7,1,10,0.00
2013-9-1,90,78,70,78,73,69,98,85,61,30.07,29.95,10,2,16,0.01
2013-9-2,91,78,71,78,73,70,97,87,58,30.06,29.95,8,1,14,0.18
2013-9-3,90,78,70,78,73,68,98,85,58,30.09,29.96,8,1,12,0.00
2013-9-4,92,76,65,75,69,64,97,80,50,30.21,30.09,5,1,10,0.00
2013-9-5,92,76,64,75,69,63,98,81,47,30.24,30.17,6,1,8,0.00
2013-9-6,87,73,62,68,64,61,97,77,44,30.30,30.19,8,1,15,0.00
2013-9-7,87,72,59,70,64,58,97,79,47,30.26,30.12,6,1,9,0.00
2013-9-8,90,74,60,72,66,58,98,78,46,30.13,30.05,6,1,8,0.00
2013-9-9,91,76,62,72,66,61,98,77,44,30.27,30.12,9,1,13,0.00
2013-9-10,92,76,64,73,68,63,97,78,43,30.38,30.27,6,1,9,0.00
2013-9-11,91,75,61,74,66,60,97,78,44,30.35,30.22,7,1,10,0.00
2013-9-12,91,76,64,73,68,62,98,78,49,30.22,29.99,10,2,15,0.00
2013-9-13,89,76,66,71,65,56,97,72,38,30.02,29.91,8,2,12,0.00
2013-9-14,82,68,59,62,56,52,92,67,43,30.24,30.01,10,2,17,0.00
2013-9-15,87,71,58,68,62,56,94,77,48,30.33,30.22,9,1,14,0.00
2013-9-16,89,78,71,74,70,65,96,78,45,30.27,30.16,8,2,12,0.00
2013-9-17,80,70,59,66,60,54,87,71,45,30.42,30.27,13,2,18,0.00
2013-9-18,79,65,53,61,55,51,95,74,46,30.41,30.28,8,2,12,0.00
2013-9-19,82,66,53,67,59,51,96,80,52,30.32,30.21,7,0,10,0.00
2013-9-20,86,72,59,70,64,57,97,80,53,30.22,30.06,7,1,10,0.00
2013-9-21,79,72,65,72,68,64,96,87,69,30.08,29.79,10,2,17,1.13
2013-9-22,82,70,56,70,62,55,96,79,49,30.03,29.77,13,3,20,1.18
2013-9-23,77,63,54,64,57,53,97,82,54,30.19,30.03,7,1,10,0.01
2013-9-24,80,64,50,66,57,49,97,81,50,30.21,30.07,8,1,12,0.00
2013-9-25,72,64,58,66,61,57,96,90,65,30.07,29.99,8,1,12,0.12
2013-9-26,79,67,56,65,61,54,97,82,50,30.14,30.00,9,1,13,0.05
2013-9-27,78,63,50,62,56,49,98,80,50,30.29,30.14,11,2,17,0.00
2013-9-28,77,61,50,59,54,48,97,78,47,30.36,30.27,11,2,20,0.01
2013-9-29,75,61,51,60,54,49,97,82,50,30.28,30.16,9,1,13,0.00
2013-9-30,79,62,50,61,54,49,97,81,41,30.22,30.13,6,1,9,0.00
2013-10-1,82,64,48,64,54,47,97,77,45,30.27,30.19,7,1,9,0.00
2013-10-2,82,73,61,61,60,59,95,69,47,30.24,30.20,1,1,2,0.00
2013-10-3,86,65,56,68,60,55,98,86,43,30.27,30.20,8,0,13,0.00
2013-10-4,88,70,57,69,62,56,98,79,43,30.28,30.19,6,1,7,0.00
2013-10-5,89,70,57,70,62,55,97,79,44,30.26,30.16,7,1,9,0.00
2013-10-6,86,71,56,70,64,55,98,82,50,30.19,30.05,9,2,12,0.00
2013-10-7,78,72,63,73,70,60,97,94,82,30.09,29.97,10,2,14,0.40
2013-10-8,64,59,54,61,54,50,96,85,70,30.29,30.08,11,4,20,0.39
2013-10-9,75,62,51,59,54,49,93,78,53,30.30,30.21,10,3,18,0.00
2013-10-10,71,62,51,64,57,49,95,84,67,30.22,30.09,11,2,16,0.00
2013-10-11,82,70,62,64,62,59,95,78,48,30.12,30.03,10,2,17,0.00
2013-10-12,79,66,55,66,61,54,97,84,57,30.20,30.09,5,1,8,0.00
2013-10-13,72,66,61,65,63,60,96,89,77,30.32,30.20,7,2,12,0.00
2013-10-14,68,64,62,64,62,60,96,92,85,30.34,30.27,8,2,14,0.02
2013-10-15,77,64,54,60,55,47,97,78,37,30.31,30.16,10,2,17,0.00
2013-10-16,79,64,52,66,58,51,97,85,56,30.20,30.08,6,0,8,0.00
2013-10-17,77,67,58,67,62,56,97,87,66,30.11,30.01,11,2,15,0.00
2013-10-18,68,66,62,66,62,58,97,88,74,30.15,30.02,8,2,13,0.02
2013-10-19,72,64,58,64,58,55,97,84,63,30.10,29.99,8,2,12,0.01
2013-10-20,70,56,45,55,48,43,97,77,46,30.22,30.05,8,1,13,0.00
2013-10-21,72,54,39,55,48,37,97,81,47,30.27,30.13,6,1,8,0.01
2013-10-22,66,60,53,62,57,51,96,91,81,30.16,29.95,5,1,10,0.00
2013-10-23,70,60,41,60,47,33,97,67,31,30.16,29.86,15,4,24,0.00
2013-10-24,64,47,31,44,36,30,96,70,37,30.32,30.16,11,1,15,0.00
2013-10-25,58,46,33,44,36,30,93,69,36,30.49,30.27,11,1,16,0.00
2013-10-26,62,43,27,38,32,25,95,70,33,30.48,30.23,11,1,15,0.00
2013-10-27,72,52,36,50,42,34,95,73,41,30.26,30.18,8,1,10,0.00
2013-10-28,70,54,45,60,51,43,97,90,68,30.39,30.24,5,0,6,0.05
2013-10-29,76,59,45,59,52,44,97,81,47,30.45,30.36,7,0,10,0.00
2013-10-30,68,52,46,58,49,45,97,91,70,30.43,30.37,6,0,8,0.00
2013-10-31,68,68,68,58,58,58,70,70,70,30.41,30.41,3,3,7,0.00
2013-11-1,68,62,59,62,59,57,97,92,70,30.41,29.84,9,2,14,0.37
2013-11-2,73,60,46,60,51,43,98,78,35,30.10,29.87,17,2,25,0.01
2013-11-3,66,48,37,46,39,36,97,76,35,30.45,30.10,13,1,18,0.00
2013-11-4,62,46,34,42,37,33,97,75,38,30.62,30.44,10,1,15,0.00
2013-11-5,61,48,33,50,43,32,96,83,64,30.62,30.52,9,2,14,0.00
2013-11-6,74,59,46,60,53,45,97,82,57,30.52,30.24,8,1,12,0.00
2013-11-7,73,60,46,62,52,35,98,78,46,30.24,30.07,11,2,17,0.00
2013-11-8,63,46,32,37,31,23,94,64,23,30.43,30.23,10,2,16,0.00
2013-11-9,62,45,29,41,33,27,95,68,32,30.50,30.33,8,1,12,0.00
2013-11-10,74,52,37,44,38,33,94,66,24,30.35,30.23,7,1,10,0.00
2013-11-11,64,46,33,39,34,29,93,66,28,30.46,30.28,9,1,13,0.00
2013-11-12,69,45,31,43,34,30,96,73,27,30.54,30.17,18,3,30,0.04
2013-11-13,48,33,22,31,25,20,95,75,34,30.67,30.54,9,1,17,0.07
2013-11-14,58,36,20,33,24,18,95,68,25,30.61,30.45,8,1,13,0.01
2013-11-15,62,47,28,52,41,25,93,81,54,30.46,30.31,7,0,9,0.00
2013-11-16,72,58,46,59,53,44,97,85,61,30.38,30.29,6,1,8,0.00
2013-11-17,71,61,49,66,58,48,98,91,71,30.33,30.06,11,2,14,0.08
2013-11-18,79,67,48,67,56,36,96,72,34,30.09,29.96,11,3,17,0.13
2013-11-19,60,48,37,38,31,25,84,55,27,30.38,30.09,11,2,17,0.00
2013-11-20,58,45,31,41,35,29,93,69,48,30.54,30.36,10,2,16,0.00
2013-11-21,64,52,45,52,45,37,88,75,61,30.58,30.47,8,2,14,0.00
2013-11-22,71,61,52,61,56,49,92,84,70,30.49,30.25,7,1,12,0.00
2013-11-23,64,57,39,60,52,31,97,84,64,30.29,30.17,8,2,13,0.04
2013-11-24,45,35,22,31,17,7,79,50,22,30.63,30.29,15,3,24,0.00
2013-11-25,46,33,19,19,14,8,83,50,22,30.69,30.43,8,1,12,0.00
2013-11-26,66,46,34,65,40,14,98,82,34,30.43,29.71,17,3,33,0.65
2013-11-27,48,41,26,47,38,22,97,89,65,30.33,29.65,15,4,24,0.12
2013-11-28,49,32,19,31,23,17,94,76,35,30.60,30.33,7,1,12,0.00
2013-11-29,56,36,22,34,28,20,96,76,37,30.69,30.58,7,1,10,0.01
2013-11-30,52,38,28,37,31,25,92,76,48,30.72,30.47,9,1,14,0.00
2013-12-1,60,45,34,49,39,32,92,79,53,30.48,30.14,5,0,7,0.00
2013-12-2,63,48,39,48,42,37,96,82,47,30.14,29.94,8,0,10,0.00
2013-12-3,60,52,42,53,48,41,96,86,66,30.10,30.00,7,1,12,0.02
2013-12-4,66,59,54,61,58,53,98,95,83,30.22,30.08,7,1,12,0.10
2013-12-5,68,63,58,66,62,57,98,96,87,30.26,30.17,14,3,21,0.04
2013-12-6,78,70,63,66,64,61,96,84,64,30.24,30.13,13,6,22,0.00
2013-12-7,68,56,46,65,52,41,96,88,80,30.52,30.16,12,4,22,0.03
2013-12-8,46,39,36,41,37,35,96,91,79,30.53,30.39,9,3,15,0.05
2013-12-9,49,43,36,49,42,35,98,97,96,30.39,30.18,7,1,8,0.16
2013-12-10,59,48,30,58,47,28,98,94,83,30.45,30.03,15,2,27,0.21
2013-12-11,54,36,23,38,29,22,97,79,36,30.57,30.41,6,0,8,0.00
2013-12-12,51,35,25,31,26,19,96,76,29,30.53,30.39,10,1,14,0.01
2013-12-13,54,36,21,35,27,19,95,75,33,30.50,30.38,9,1,12,0.00
2013-12-14,55,46,38,53,42,34,97,88,69,30.39,29.91,15,2,22,0.47
2013-12-15,57,46,30,48,42,29,98,86,58,30.24,29.86,10,2,15,0.04
2013-12-16,58,40,27,39,32,25,96,78,40,30.32,30.22,11,2,16,0.00
2013-12-17,65,51,35,40,35,31,86,57,33,30.27,30.09,15,5,25,0.00
2013-12-18,55,40,27,36,27,17,91,64,24,30.42,30.16,8,1,12,0.00
2013-12-19,62,40,24,37,28,22,95,70,24,30.47,30.36,11,1,16,0.00
2013-12-20,66,51,36,55,46,33,95,84,57,30.38,30.27,12,1,20,0.00
2013-12-21,74,61,44,66,56,43,97,86,70,30.28,30.16,13,4,22,0.00
2013-12-22,76,70,64,68,66,62,97,87,67,30.23,30.15,16,6,25,0.58
2013-12-23,68,61,50,66,60,46,98,96,87,30.27,30.14,11,3,18,0.58
2013-12-24,53,43,30,47,33,21,95,70,45,30.55,30.24,11,4,16,0.01
2013-12-25,44,32,22,26,20,12,87,61,32,30.65,30.50,8,2,12,0.00
2013-12-26,55,39,31,38,31,24,94,74,37,30.50,30.36,7,1,9,0.02
2013-12-27,53,37,27,34,28,23,93,74,34,30.58,30.46,6,1,8,0.01
2013-12-28,57,40,23,42,31,22,95,73,35,30.53,30.21,7,1,8,0.07
2013-12-29,60,48,41,60,46,40,98,95,90,30.22,29.89,13,3,21,1.06
2013-12-30,54,45,34,48,42,33,98,90,67,30.25,30.06,6,1,8,0.01
2013-12-31,54,43,31,44,37,30,97,82,43,30.48,30.22,9,2,12,0.00
2014-1-1,49,39,30,39,34,29,97,84,54,30.51,30.26,6,1,8,0.00
2014-1-2,50,45,40,49,44,36,97,94,79,30.26,29.76,12,2,23,0.17